Temp
16 15 15 15 15 15 15 15 15 15 15 15 15 15 15 15 14 14 14 14 14 14 14 13 13 13 13 13 13 13 13 13 13 13 13 13 13 13 13 13 13 13 13 13 12 12 12 12 13 13 13 13 13 13 13 13 13 13 13 13 13 13 13
15 15 15 15 15 15 16 15 15 15 15 15 15 15 14 14 14 14 13 13 13 13 13 13 13 13 13 13 13 13 13 12 13 13 13 13 13 13 13 13 13 13 13 13 12 12 12 12 12 13 13 13 13 13 13 13 13 13 13 13 13 13 13
15 15 15 15 15 15 15 15 15 15 15 15 14 14 13 13 13 13 13 13 13 13 13 13 13 13 12 12 12 12 12 12 12 12 12 12 12 12 12 12 12 12 12 12 12 12 12 12 12 12 12 12 12 13 13 13 13 13 13 13 13 13 13
16 15 14 15 15 15 15 15 15 15 14 14 14 13 13 13 13 13 14 13 13 13 12 12 12 12 12 12 12 12 12 12 12 12 12 12 12 12 12 12 12 12 12 12 12 12 12 12 12 12 12 12 12 12 13 13 13 13 13 13 13 13 13
16 14 14 15 15 15 15 14 14 14 14 13 13 13 13 13 13 14 14 13 13 12 12 12 12 12 12 12 12 12 12 12 12 12 12 13 13 12 12 12 12 12 12 12 12 12 12 12 12 12 12 12 12 12 13 13 13 13 13 13 13 13 13
16 14 14 14 15 14 14 14 14 14 13 13 13 13 13 13 13 13 13 13 12 12 12 12 12 11 11 11 11 11 12 12 12 12 12 12 12 12 12 12 12 12 12 12 12 12 12 12 12 12 12 12 12 12 12 13 13 13 12 13 13 13 13
15 14 13 14 14 14 14 14 14 14 13 13 12 12 12 13 13 13 13 12 12 11 11 11 11 11 11 11 11 12 12 12 12 12 12 12 12 12 12 12 12 12 12 12 12 12 12 12 12 12 12 12 12 12 12 12 12 12 12 13 13 13 13
15 14 13 14 14 14 14 14 14 14 13 12 12 12 12 12 12 13 13 12 12 12 12 12 12 12 11 11 11 11 11 12 12 12 12 12 12 12 12 12 12 12 12 12 12 12 12 12 12 12 12 11 12 12 12 12 12 12 13 12 12 12 13
15 14 13 14 14 14 14 14 14 13 12 12 12 11 11 11 12 13 14 13 13 13 13 13 13 12 12 12 12 11 11 11 12 12 12 12 12 12 12 12 12 12 12 12 12 12 12 12 12 12 12 11 11 12 12 12 12 12 13 12 12 12 12
14 13 13 13 13 13 13 12 12 11 12 13 12 11 11 12 12 14 14 14 13 13 13 14 14 13 13 13 12 11 11 11 12 12 12 12 12 12 12 12 12 12 12 12 12 12 12 12 12 12 12 11 11 11 11 11 12 12 12 12 12 12 12
13 13 13 13 12 12 12 11 11 11 12 12 11 11 12 12 13 14 14 13 13 13 14 14 14 13 13 12 11 11 11 11 11 11 11 12 12 12 12 12 12 12 12 12 12 12 12 12 12 12 11 11 11 11 11 11 11 12 12 12 12 12 12
13 13 12 12 11 11 11 10 10 10 11 10 10 12 12 13 14 14 14 14 14 14 14 14 13 13 13 12 11 10 10 10 10 11 11 11 11 11 11 12 12 12 12 12 12 12 12 12 11 11 11 11 11 11 11 11 11 12 12 12 12 12 12
13 12 12 11 11 10 10 10 10 10 10 10 11 13 13 14 15 15 14 14 14 14 13 13 14 13 12 12 11 10 10 10 10 10 10 11 11 11 11 11 12 12 12 11 12 12 12 11 11 11 11 11 11 11 11 11 11 11 12 12 12 12 12
12 12 11 10 10 10 10 9 9 9 10 12 13 14 14 14 14 14 14 13 13 13 13 13 13 13 12 12 11 11 11 10 9 10 10 10 11 11 11 11 11 12 12 12 12 12 12 12 12 11 11 11 11 11 11 11 11 11 12 12 12 12 12
12 11 11 10 10 10 9 10 9 10 12 13 14 14 14 14 14 13 13 13 13 13 13 13 13 13 12 12 12 11 11 10 9 9 9 9 10 10 10 10 11 11 11 11 11 11 11 12 12 11 11 11 11 11 11 11 11 11 12 12 12 12 12
12 11 10 10 10 10 11 11 10 11 13 14 14 14 14 14 13 13 13 13 13 13 13 13 12 12 13 13 12 12 10 9 9 8 8 8 9 9 9 9 9 10 10 10 11 11 11 11 11 11 12 11 11 11 11 11 11 11 11 12 12 12 12
12 11 10 10 10 11 12 11 11 11 13 14 14 14 14 14 13 13 13 13 13 12 12 12 12 12 12 12 12 12 11 9 8 8 8 8 8 8 8 8 8 8 9 9 10 11 11 11 11 11 12 11 11 11 11 11 11 11 11 11 11 11 11
11 11 11 11 10 11 12 11 11 12 13 13 13 13 13 13 13 12 12 12 12 12 12 12 12 12 12 11 11 11 11 9 8 8 8 8 8 8 8 8 8 8 8 9 10 10 10 11 11 11 11 11 11 11 11 11 10 10 10 10 11 11 11
11 11 11 10 10 10 10 10 10 11 12 12 12 12 12 12 12 12 12 12 12 12 12 12 12 12 12 11 11 11 10 9 8 8 8 8 8 8 8 8 8 8 8 8 9 10 10 10 10 11 11 11 11 11 11 11 10 10 10 10 10 11 11
11 10 10 9 9 9 9 10 10 10 11 11 11 11 12 12 12 12 12 12 12 12 12 12 12 11 11 11 11 10 9 8 7 7 7 7 7 7 7 7 7 7 7 7 7 8 9 10 10 10 11 11 11 11 11 11 10 10 10 10 10 10 10
10 9 9 9 9 9 9 10 10 10 10 10 10 11 11 11 12 12 12 12 12 12 11 11 11 11 11 11 10 9 9 8 7 7 7 7 7 6 6 6 6 6 6 6 6 7 8 9 10 10 10 10 10 10 10 10 10 10 9 9 10 10 10
9 9 9 9 9 9 9 10 10 10 9 10 11 11 11 11 11 11 11 12 11 11 11 11 11 11 11 11 10 9 8 7 6 6 6 6 6 6 6 6 6 6 6 6 6 6 6 7 9 9 10 10 10 10 10 10 10 9 8 8 9 9 10
9 8 8 8 9 9 9 9 9 8 9 10 11 11 11 11 11 11 11 11 11 11 11 10 10 10 10 10 10 9 8 7 6 6 6 6 6 6 6 6 5 5 6 6 5 5 6 6 7 8 8 9 9 9 9 9 9 8 8 8 8 8 9
8 8 8 8 8 8 8 8 8 8 9 10 10 10 11 11 11 11 11 11 11 10 10 9 9 9 9 9 9 9 8 7 7 6 6 6 5 5 5 6 5 5 5 5 5 5 6 6 6 6 7 8 8 9 9 9 8 7 7 8 8 8 8
7 8 8 7 8 8 8 7 7 8 9 10 10 10 11 10 10 10 10 10 10 10 9 9 9 9 9 9 9 9 8 8 8 7 7 7 6 6 5 5 5 5 5 5 5 5 5 5 5 5 5 7 8 8 8 8 8 7 7 7 7 8 8
7 7 7 7 7 7 7 7 7 8 9 9 10 10 10 10 10 10 10 10 9 9 9 8 8 8 8 8 8 8 8 8 8 7 7 7 7 7 7 6 6 6 5 5 5 5 5 5 5 4 4 5 6 6 7 7 6 6 6 6 6 6 7
7 7 7 7 7 7 7 7 7 8 8 9 10 10 9 9 9 9 9 9 9 9 8 8 8 8 8 7 7 7 7 7 7 7 7 7 7 7 7 7 7 6 6 5 5 5 5 5 5 5 4 4 4 5 5 5 5 5 5 5 6 6 6
7 7 7 7 7 7 7 7 7 7 7 7 8 9 8 8 8 8 8 8 8 8 8 8 7 7 7 6 6 7 7 7 7 7 7 7 7 7 7 7 6 6 6 5 5 6 6 5 5 5 4 4 4 4 4 4 4 5 5 5 5 6 6
7 7 7 7 7 7 7 7 7 6 6 6 7 8 8 8 8 8 8 8 8 8 7 7 7 7 6 6 6 6 6 6 6 7 7 6 6 6 6 6 6 6 6 5 5 6 6 5 5 5 5 4 4 4 5 4 4 4 4 5 5 5 6
7 7 7 7 7 7 7 7 6 6 6 6 7 8 8 9 9 9 8 8 8 7 7 7 7 7 6 6 6 6 6 5 5 6 6 6 6 6 6 6 6 6 5 5 5 5 5 5 5 5 5 5 5 5 5 5 5 4 4 4 5 5 6
7 7 7 7 7 7 7 6 6 6 6 6 6 7 8 8 8 8 8 8 8 8 7 7 6 6 6 6 6 6 6 5 5 5 6 6 5 5 5 5 5 6 5 4 4 4 4 4 5 5 5 5 5 5 5 5 5 5 5 5 5 5 6
7 7 7 7 7 7 7 6 6 6 6 6 6 5 6 7 7 7 7 7 7 7 7 7 6 6 6 6 6 6 5 5 5 5 5 5 5 5 5 4 4 5 5 4 4 4 4 4 5 5 5 5 5 5 5 5 5 5 5 5 5 5 5
6 6 6 6 6 6 6 6 7 6 6 6 5 5 6 7 7 7 7 6 7 7 7 7 6 6 6 6 6 6 5 5 5 5 5 5 5 5 4 4 4 4 4 4 3 4 4 4 5 5 5 5 5 5 5 5 4 4 4 4 4 4 5
6 6 6 6 6 6 7 7 7 6 6 6 5 5 6 6 6 6 6 6 7 7 6 7 6 6 6 6 6 6 6 5 5 5 5 5 4 4 4 4 4 4 4 4 4 4 4 4 4 5 5 5 5 5 5 4 4 4 4 4 4 4 4
6 6 6 6 6 6 6 6 6 6 5 5 5 5 5 6 6 6 6 6 6 7 6 7 7 7 7 6 5 6 6 6 5 5 5 4 4 4 4 4 4 4 3 3 4 4 4 4 5 5 5 5 5 5 5 4 4 4 4 4 4 4 4
6 6 6 6 6 6 6 6 6 5 5 5 5 5 5 6 6 6 6 6 6 6 6 6 6 7 6 6 6 6 6 6 6 6 5 4 4 4 4 4 4 4 4 3 4 4 4 4 5 5 5 5 5 5 5 5 5 5 4 4 4 4 3
6 6 6 6 6 6 6 6 5 5 5 5 5 5 5 5 5 6 6 6 6 6 6 6 6 6 6 6 6 5 5 5 5 5 5 4 4 4 4 4 4 4 4 3 3 4 4 4 4 5 5 5 5 5 5 5 5 5 5 4 4 4 4
Height
1524 1526 1529 1531 1532 1533 1533 1534 1534 1535 1535 1535 1535 1534 1534 1534 1533 1533 1532 1532 1532 1531 1531 1530 1530 1529 1529 1528 1528 1527 1527 1526 1526 1525 1524 1524 1524 1524 1524 1524 1523 1523 1522 1521 1519 1518 1516 1513 1512 1512 1511 1511 1509 1508 1508 1508 1508 1508 1508 1508 1508 1507 1506
1523 1525 1528 1529 1531 1531 1532 1533 1533 1534 1534 1534 1534 1534 1533 1533 1532 1532 1531 1531 1530 1530 1529 1529 1528 1528 1528 1527 1526 1526 1525 1525 1525 1524 1524 1524 1523 1523 1523 1523 1522 1522 1521 1521 1519 1518 1517 1514 1511 1509 1509 1509 1507 1506 1506 1506 1505 1505 1505 1505 1505 1505 1504
1523 1525 1527 1528 1529 1530 1531 1532 1532 1533 1533 1533 1533 1533 1532 1532 1531 1530 1529 1529 1529 1528 1528 1528 1527 1527 1527 1526 1525 1525 1524 1523 1523 1523 1523 1522 1522 1522 1522 1522 1521 1521 1520 1520 1519 1518 1517 1514 1511 1508 1508 1508 1506 1504 1503 1503 1503 1502 1501 1502 1502 1502 1501
1524 1527 1527 1527 1528 1529 1530 1531 1531 1532 1532 1532 1532 1532 1531 1530 1529 1528 1528 1527 1527 1527 1526 1526 1526 1526 1525 1524 1524 1523 1523 1522 1522 1522 1522 1521 1521 1521 1521 1521 1520 1519 1519 1518 1517 1516 1514 1512 1510 1507 1506 1506 1504 1502 1501 1500 1500 1499 1498 1499 1499 1499 1498
1525 1529 1529 1528 1528 1529 1529 1530 1530 1531 1531 1532 1531 1530 1529 1528 1528 1527 1526 1526 1525 1525 1525 1525 1525 1524 1524 1523 1523 1522 1522 1522 1521 1521 1521 1520 1520 1520 1520 1519 1518 1517 1517 1516 1514 1512 1511 1509 1508 1505 1504 1503 1501 1499 1498 1498 1497 1496 1496 1496 1496 1496 1496
1525 1530 1530 1528 1528 1528 1529 1529 1529 1530 1530 1531 1530 1529 1528 1527 1526 1525 1524 1524 1524 1524 1524 1524 1523 1523 1523 1522 1522 1521 1521 1521 1520 1520 1520 1520 1519 1519 1518 1517 1516 1515 1514 1513 1512 1510 1509 1508 1506 1504 1502 1501 1498 1496 1496 1495 1494 1494 1494 1494 1494 1494 1493
1526 1532 1530 1527 1527 1527 1527 1528 1528 1528 1529 1529 1528 1527 1526 1525 1524 1523 1523 1523 1522 1522 1522 1522 1521 1521 1521 1521 1520 1520 1520 1520 1520 1519 1519 1519 1518 1518 1516 1515 1514 1513 1512 1511 1510 1509 1508 1506 1505 1503 1500 1498 1496 1493 1493 1493 1493 1492 1491 1491 1492 1492 1492
1526 1532 1530 1527 1526 1525 1526 1526 1526 1527 1527 1527 1527 1525 1525 1524 1523 1522 1522 1521 1521 1520 1520 1520 1520 1520 1520 1519 1519 1519 1519 1519 1519 1519 1518 1518 1517 1516 1515 1514 1512 1511 1510 1510 1508 1507 1506 1505 1503 1501 1499 1497 1494 1491 1490 1490 1490 1490 1490 1490 1490 1490 1490
1523 1529 1528 1525 1524 1524 1525 1525 1525 1525 1525 1525 1525 1524 1523 1522 1522 1521 1520 1520 1519 1519 1518 1518 1518 1518 1518 1518 1518 1518 1518 1518 1518 1517 1517 1517 1516 1515 1513 1512 1511 1510 1509 1508 1507 1506 1504 1503 1501 1500 1498 1497 1494 1490 1488 1487 1487 1488 1489 1489 1488 1487 1487
1521 1525 1525 1523 1523 1523 1523 1523 1523 1523 1523 1524 1524 1523 1522 1521 1521 1520 1519 1519 1518 1518 1517 1517 1517 1517 1517 1517 1517 1517 1517 1517 1516 1517 1516 1516 1514 1513 1512 1511 1509 1508 1507 1506 1505 1504 1502 1500 1499 1498 1497 1496 1494 1491 1488 1486 1485 1485 1486 1487 1486 1485 1485
1519 1521 1522 1521 1521 1522 1522 1522 1522 1522 1522 1522 1522 1522 1521 1520 1519 1519 1518 1517 1517 1516 1516 1516 1516 1516 1515 1515 1515 1516 1515 1515 1515 1516 1515 1514 1513 1512 1511 1509 1508 1507 1506 1505 1504 1502 1500 1499 1498 1497 1496 1494 1493 1491 1488 1486 1483 1483 1484 1484 1484 1483 1483
1517 1518 1519 1520 1520 1521 1521 1521 1521 1521 1521 1521 1521 1520 1520 1519 1518 1518 1517 1516 1516 1516 1516 1515 1515 1515 1515 1515 1515 1515 1515 1514 1515 1515 1514 1513 1512 1511 1510 1509 1507 1506 1505 1504 1502 1501 1499 1498 1497 1496 1494 1492 1491 1489 1487 1486 1483 1481 1482 1482 1481 1481 1481
1515 1516 1517 1519 1519 1520 1520 1520 1520 1521 1520 1520 1520 1519 1518 1518 1517 1517 1516 1516 1516 1515 1515 1515 1514 1514 1514 1514 1514 1514 1514 1514 1514 1513 1512 1511 1510 1509 1509 1508 1506 1505 1504 1502 1501 1500 1498 1497 1496 1494 1493 1491 1490 1488 1486 1485 1483 1480 1480 1481 1479 1479 1479
1513 1514 1516 1517 1518 1518 1519 1519 1520 1519 1519 1518 1518 1517 1517 1517 1517 1516 1516 1516 1515 1515 1515 1514 1514 1514 1514 1514 1513 1513 1513 1513 1513 1512 1511 1510 1509 1508 1507 1506 1505 1504 1502 1501 1499 1498 1497 1496 1494 1493 1491 1490 1488 1487 1485 1484 1482 1479 1478 1479 1478 1477 1477
1511 1512 1514 1515 1516 1516 1517 1517 1518 1517 1517 1517 1516 1516 1516 1516 1516 1516 1515 1515 1515 1515 1515 1514 1514 1514 1514 1513 1513 1512 1512 1512 1511 1510 1510 1508 1507 1507 1506 1505 1504 1503 1501 1499 1498 1496 1495 1494 1493 1491 1490 1488 1487 1486 1484 1482 1481 1479 1477 1477 1477 1476 1475
1510 1511 1512 1513 1514 1515 1515 1515 1516 1516 1515 1515 1515 1515 1515 1515 1515 1515 1515 1515 1515 1515 1515 1515 1515 1514 1513 1513 1512 1512 1511 1511 1510 1510 1509 1508 1507 1506 1506 1504 1503 1502 1500 1499 1497 1495 1494 1492 1491 1489 1488 1487 1485 1484 1483 1482 1480 1479 1476 1475 1475 1474 1473
1508 1509 1510 1511 1512 1513 1514 1514 1515 1515 1514 1515 1515 1514 1514 1515 1515 1515 1515 1515 1515 1515 1515 1515 1515 1514 1513 1512 1512 1511 1511 1511 1510 1509 1509 1508 1507 1506 1506 1504 1503 1502 1500 1498 1496 1494 1492 1491 1489 1488 1486 1485 1484 1483 1482 1481 1480 1478 1476 1474 1473 1472 1471
1507 1507 1509 1510 1512 1513 1513 1514 1514 1514 1514 1514 1514 1514 1514 1515 1515 1515 1515 1515 1515 1515 1515 1515 1514 1514 1513 1512 1511 1511 1511 1510 1510 1509 1509 1508 1507 1507 1506 1505 1503 1502 1500 1497 1495 1493 1491 1490 1488 1487 1485 1484 1482 1481 1480 1479 1478 1477 1475 1473 1472 1471 1469
1505 1507 1508 1510 1511 1512 1513 1513 1513 1513 1514 1514 1514 1514 1514 1515 1515 1515 1515 1515 1515 1515 1515 1515 1514 1513 1513 1512 1511 1511 1511 1510 1510 1509 1509 1509 1508 1507 1506 1505 1504 1502 1499 1497 1495 1493 1491 1489 1488 1486 1484 1483 1481 1480 1479 1478 1477 1476 1475 1473 1471 1469 1468
1505 1506 1508 1510 1511 1512 1513 1513 1513 1513 1514 1514 1514 1514 1515 1515 1515 1515 1515 1515 1515 1515 1515 1515 1514 1513 1513 1512 1512 1511 1511 1511 1511 1510 1510 1509 1508 1507 1506 1505 1504 1502 1500 1498 1496 1494 1492 1490 1488 1486 1484 1482 1481 1479 1478 1477 1476 1475 1473 1472 1470 1469 1467
1504 1506 1508 1509 1510 1511 1512 1512 1513 1513 1514 1514 1514 1514 1515 1515 1515 1515 1516 1516 1516 1516 1515 1515 1514 1513 1513 1512 1512 1512 1511 1511 1511 1511 1511 1510 1509 1508 1507 1506 1505 1503 1501 1499 1497 1495 1493 1491 1489 1487 1485 1483 1481 1479 1478 1476 1475 1473 1472 1471 1470 1468 1467
1504 1506 1507 1508 1510 1511 1512 1513 1513 1514 1514 1514 1514 1515 1515 1515 1515 1516 1516 1516 1516 1516 1515 1515 1514 1514 1514 1513 1512 1512 1512 1512 1512 1512 1512 1511 1510 1509 1508 1506 1505 1504 1503 1501 1499 1497 1495 1493 1490 1488 1486 1484 1482 1480 1478 1476 1475 1473 1472 1471 1469 1468 1467
1504 1505 1507 1508 1510 1511 1512 1513 1514 1515 1514 1514 1514 1515 1515 1515 1516 1516 1516 1516 1516 1516 1516 1515 1515 1515 1514 1514 1513 1513 1513 1513 1513 1513 1513 1513 1512 1510 1509 1507 1506 1505 1504 1502 1501 1499 1498 1495 1493 1490 1488 1486 1484 1481 1479 1478 1476 1474 1473 1472 1470 1469 1467
1503 1505 1506 1508 1510 1511 1513 1514 1515 1515 1514 1514 1515 1515 1515 1516 1516 1516 1517 1517 1517 1517 1516 1516 1516 1516 1516 1515 1515 1514 1514 1514 1514 1514 1514 1513 1513 1511 1510 1509 1507 1507 1505 1504 1502 1501 1500 1498 1495 1493 1491 1488 1486 1484 1482 1480 1478 1476 1475 1473 1472 1470 1469
1503 1505 1507 1508 1510 1512 1513 1514 1515 1515 1514 1514 1515 1515 1515 1516 1516 1517 1517 1517 1517 1517 1517 1517 1517 1517 1517 1516 1516 1516 1516 1516 1515 1515 1514 1514 1513 1512 1511 1510 1509 1508 1507 1506 1504 1503 1501 1500 1498 1496 1494 1491 1489 1486 1484 1482 1480 1479 1477 1475 1474 1472 1470
1504 1505 1507 1509 1511 1512 1513 1514 1514 1514 1514 1515 1515 1515 1516 1516 1517 1517 1517 1518 1518 1518 1518 1518 1518 1518 1518 1518 1518 1517 1517 1517 1517 1516 1516 1515 1514 1513 1512 1511 1510 1509 1508 1507 1506 1505 1503 1502 1501 1499 1497 1494 1492 1490 1487 1485 1483 1482 1480 1478 1476 1474 1472
1504 1506 1508 1510 1511 1512 1513 1514 1514 1515 1515 1515 1515 1516 1516 1517 1517 1518 1518 1518 1519 1519 1519 1519 1519 1519 1519 1519 1519 1519 1519 1518 1518 1517 1517 1516 1515 1514 1513 1512 1510 1509 1509 1508 1507 1506 1505 1504 1503 1501 1499 1497 1495 1493 1491 1489 1487 1485 1483 1481 1479 1477 1475
1504 1506 1508 1510 1511 1512 1513 1514 1515 1515 1515 1516 1516 1516 1517 1517 1517 1518 1518 1519 1520 1520 1520 1520 1520 1520 1520 1520 1520 1520 1520 1519 1519 1518 1517 1516 1515 1514 1513 1512 1511 1510 1509 1509 1508 1507 1507 1506 1504 1503 1501 1500 1498 1497 1494 1492 1490 1488 1486 1484 1482 1480 1478
1505 1507 1509 1511 1512 1513 1514 1515 1516 1516 1516 1516 1516 1516 1517 1517 1517 1518 1519 1520 1520 1520 1521 1521 1521 1522 1522 1522 1522 1521 1521 1520 1519 1519 1518 1517 1516 1515 1514 1513 1512 1511 1510 1509 1509 1508 1508 1507 1506 1505 1503 1502 1501 1499 1498 1496 1494 1492 1490 1488 1486 1484 1482
1506 1508 1509 1511 1512 1513 1514 1515 1516 1516 1516 1517 1517 1517 1517 1517 1518 1519 1519 1520 1521 1521 1521 1522 1522 1523 1523 1523 1523 1523 1522 1521 1520 1520 1519 1518 1517 1516 1515 1514 1513 1512 1511 1510 1509 1509 1508 1508 1507 1507 1505 1504 1503 1502 1501 1500 1498 1496 1494 1492 1490 1488 1485
1507 1508 1510 1511 1512 1513 1514 1516 1517 1517 1517 1518 1518 1518 1518 1518 1519 1519 1520 1521 1521 1521 1522 1522 1523 1523 1524 1524 1524 1524 1523 1522 1522 1521 1520 1519 1518 1517 1516 1516 1514 1513 1511 1510 1510 1510 1509 1508 1508 1508 1507 1506 1505 1504 1503 1503 1501 1500 1498 1495 1493 1491 1488
1507 1508 1509 1511 1512 1513 1515 1516 1518 1518 1519 1519 1519 1519 1518 1519 1519 1520 1521 1521 1522 1522 1522 1522 1523 1524 1524 1525 1524 1524 1524 1523 1523 1522 1522 1521 1520 1519 1518 1517 1516 1515 1513 1512 1512 1511 1511 1510 1510 1509 1509 1508 1507 1506 1506 1505 1503 1502 1500 1498 1496 1493 1491
1507 1508 1509 1511 1512 1514 1516 1517 1519 1519 1519 1519 1519 1519 1519 1519 1520 1521 1521 1522 1522 1522 1522 1523 1523 1524 1525 1525 1525 1525 1524 1524 1524 1524 1523 1522 1521 1520 1519 1519 1518 1517 1516 1515 1515 1514 1513 1513 1512 1512 1511 1510 1509 1508 1508 1507 1506 1504 1502 1500 1498 1496 1494
1507 1508 1510 1511 1513 1515 1517 1518 1519 1519 1519 1519 1519 1519 1519 1520 1521 1521 1522 1522 1522 1523 1523 1523 1524 1524 1525 1525 1525 1525 1525 1525 1525 1525 1524 1524 1523 1522 1521 1520 1520 1519 1518 1518 1517 1517 1516 1515 1514 1514 1513 1512 1511 1511 1510 1509 1508 1506 1505 1503 1501 1499 1498
1508 1509 1511 1512 1514 1516 1517 1519 1519 1519 1519 1519 1519 1520 1520 1521 1521 1521 1522 1523 1523 1524 1524 1524 1525 1525 1525 1526 1526 1527 1526 1526 1526 1526 1525 1525 1524 1523 1523 1522 1522 1521 1520 1520 1520 1519 1518 1518 1516 1516 1515 1515 1514 1513 1512 1511 1510 1508 1507 1505 1504 1503 1501
1508 1510 1511 1513 1515 1516 1517 1518 1519 1519 1520 1520 1520 1521 1521 1522 1522 1522 1523 1524 1525 1525 1525 1526 1526 1526 1526 1527 1528 1528 1528 1528 1528 1527 1526 1526 1525 1525 1525 1525 1524 1523 1522 1522 1522 1521 1521 1520 1518 1518 1517 1517 1517 1516 1515 1513 1512 1511 1509 1508 1506 1505 1504
1509 1511 1512 1514 1515 1516 1517 1518 1519 1520 1520 1520 1521 1522 1522 1523 1523 1524 1525 1526 1526 1527 1527 1527 1527 1528 1528 1529 1529 1530 1530 1530 1530 1529 1528 1528 1527 1527 1527 1527 1526 1525 1524 1524 1523 1523 1522 1522 1521 1519 1518 1518 1518 1517 1517 1516 1514 1513 1512 1511 1509 1508 1508
Wind_Speed
11 12 13 13 12 10 9 7 6 5 4 4 5 8 9 9 7 8 9 9 10 10 10 9 10 11 11 12 12 13 14 14 15 16 18 18 19 19 17 16 18 20 21 22 22 22 22 24 26 26 25 25 23 24 24 23 24 26 26 25 24 25 24
13 14 14 14 12 10 7 6 5 4 4 5 6 6 6 7 7 8 9 9 9 9 9 9 10 10 12 13 14 15 15 15 15 16 18 18 18 18 18 18 19 19 20 21 21 20 20 23 26 26 26 25 23 25 25 23 24 25 26 25 24 25 25
14 13 13 13 11 9 7 6 5 5 5 6 6 6 6 7 8 9 9 9 9 9 10 11 11 11 11 12 13 14 14 15 15 16 17 17 17 18 18 19 20 20 21 22 21 21 21 23 24 26 27 24 24 26 25 24 25 25 25 25 25 24 24
13 11 11 11 10 8 8 7 7 6 6 6 6 7 9 10 11 11 10 10 8 8 9 10 11 11 11 12 13 14 15 15 16 16 17 17 17 17 17 18 19 20 21 22 22 21 22 24 25 27 29 26 25 25 23 23 23 22 22 22 22 21 22
12 12 11 11 10 9 8 7 7 7 6 6 7 8 11 12 12 11 9 7 7 6 8 8 9 11 11 12 13 13 14 14 14 15 15 16 16 17 17 18 19 19 20 21 22 22 22 23 24 27 29 26 25 23 21 22 23 22 21 20 20 20 22
11 12 12 13 12 11 9 8 8 8 8 8 9 11 13 13 10 8 4 4 4 4 5 7 9 9 10 11 12 12 12 12 13 14 14 15 15 17 18 18 18 19 21 22 22 21 21 21 22 25 26 24 22 23 23 22 22 21 21 20 20 21 22
12 11 12 12 11 11 11 11 10 10 11 11 11 13 13 10 6 4 2 3 4 5 6 7 8 7 8 10 10 10 11 11 12 13 14 15 16 17 17 17 19 20 21 21 20 19 20 21 21 23 25 24 24 25 24 22 19 19 20 20 20 21 21
12 10 10 11 12 12 12 12 12 13 13 13 13 11 8 5 4 3 3 3 4 5 6 7 7 7 8 8 8 8 10 10 12 13 14 15 16 16 16 18 19 20 19 19 19 19 19 21 22 22 22 23 25 27 26 22 19 18 19 19 21 20 20
14 11 10 11 12 12 11 12 12 13 13 13 11 8 4 3 4 4 3 4 5 6 6 7 7 7 8 8 8 8 8 9 11 12 13 15 15 16 17 17 18 19 18 17 18 20 21 21 21 20 19 20 23 26 26 25 23 21 19 19 20 19 19
16 14 12 11 10 10 11 11 9 10 11 9 7 5 3 3 4 5 5 5 5 6 6 6 7 7 8 7 7 6 7 8 10 11 13 15 14 15 16 16 16 18 17 16 18 19 20 21 19 18 19 19 20 22 23 25 25 24 21 19 20 19 18
17 15 12 9 8 8 8 8 7 7 7 4 4 3 2 3 5 5 4 4 5 5 5 6 7 8 8 8 7 7 7 8 8 10 13 14 14 13 14 14 15 16 15 15 17 18 18 19 17 17 18 19 19 20 21 23 26 25 22 21 21 20 20
14 12 10 9 8 6 5 6 7 6 4 3 3 3 1 3 4 4 4 4 4 5 6 6 7 8 8 8 7 8 9 9 8 9 12 13 13 12 12 12 14 15 16 15 16 16 17 17 17 17 17 17 17 18 19 20 25 26 24 24 24 21 21
11 10 10 9 8 9 8 6 5 4 4 4 3 2 1 2 3 4 4 4 4 5 6 6 6 7 7 8 8 8 8 9 9 9 11 11 12 13 12 14 16 17 18 18 16 15 15 15 15 16 16 16 16 16 17 17 22 26 25 24 24 22 21
11 10 9 9 9 10 8 6 5 4 5 5 3 2 1 2 3 4 4 4 4 5 6 6 6 7 7 8 9 9 9 9 10 10 11 12 13 14 15 16 17 17 18 17 17 16 14 14 14 14 15 16 16 15 16 16 19 23 23 21 20 19 20
10 9 10 11 12 10 9 9 7 6 5 4 2 1 1 3 3 3 3 3 4 5 6 6 7 7 8 8 9 10 10 10 10 12 13 14 15 16 17 17 17 17 17 16 16 15 15 15 14 14 14 14 15 15 15 16 17 20 21 20 19 19 20
9 8 10 12 12 11 10 9 7 5 4 3 3 2 3 3 3 3 3 4 5 6 6 7 7 8 8 9 9 10 10 10 10 12 13 15 17 18 18 18 18 18 18 18 17 15 14 15 14 15 15 14 15 15 14 15 16 18 20 20 19 19 21
7 8 11 12 11 9 8 7 6 5 4 4 4 4 4 4 4 4 5 6 7 7 8 8 8 8 9 9 9 10 10 10 10 11 13 14 17 18 18 19 19 19 18 18 18 16 15 14 14 15 15 14 15 15 14 13 14 16 18 20 20 19 19
7 9 11 12 11 9 8 7 6 5 5 6 6 6 6 6 7 7 8 8 8 8 8 8 8 9 9 9 10 11 11 10 10 12 12 13 16 17 17 18 18 18 19 18 18 17 17 16 15 15 16 15 15 15 14 13 13 14 16 18 19 18 17
8 10 11 11 9 8 8 7 6 6 7 7 8 8 8 9 9 8 8 9 8 8 9 9 9 9 9 9 10 11 11 11 11 12 13 13 14 16 16 17 17 17 19 21 21 21 19 18 17 16 16 15 15 14 13 12 12 13 14 15 16 16 15
11 13 12 10 9 8 7 7 7 8 9 9 10 11 11 10 9 9 9 9 9 9 9 9 9 9 9 9 10 11 12 12 12 13 14 14 15 16 16 17 17 17 20 23 24 24 22 21 20 19 18 17 15 14 13 12 12 12 12 13 14 14 13
15 14 11 10 9 8 8 8 9 10 10 11 12 12 12 10 10 10 9 9 10 10 10 10 10 11 11 10 11 12 13 13 13 12 13 14 15 15 15 16 17 17 19 22 24 25 24 24 22 21 20 19 17 15 13 13 13 12 12 12 13 12 11
15 13 11 11 10 9 10 11 11 11 11 12 13 13 12 11 11 11 10 10 10 10 10 11 12 14 14 13 13 13 13 14 14 14 14 14 15 15 15 16 17 17 18 20 22 23 24 24 24 24 23 21 19 17 16 15 15 15 14 13 13 12 11
14 13 12 10 10 11 12 12 12 11 12 13 14 13 12 12 11 11 11 10 11 11 12 13 14 15 14 14 13 13 13 13 13 13 13 14 14 15 14 14 16 17 17 18 19 21 22 24 27 27 26 24 23 21 19 18 18 17 17 17 16 15 13
13 13 12 11 11 12 12 13 11 11 12 14 14 13 13 13 12 12 11 11 11 11 12 13 13 13 13 13 13 13 13 13 12 12 12 12 12 13 14 14 15 16 16 16 17 18 19 22 27 29 28 26 25 24 23 22 21 20 20 20 19 17 17
14 13 12 12 12 13 13 12 11 11 13 14 13 13 13 13 13 12 11 11 11 12 12 12 12 11 12 13 13 14 14 14 15 15 14 13 13 13 14 15 15 15 14 14 14 15 16 20 23 26 28 28 26 26 26 25 25 24 24 23 22 21 21
14 13 13 13 14 14 13 12 11 12 14 13 12 12 13 13 13 12 11 11 11 11 12 12 11 11 11 12 12 13 14 14 15 15 15 15 14 13 13 13 14 14 13 14 15 15 16 18 19 20 25 28 28 27 27 27 27 27 27 26 26 25 24
15 14 14 14 15 14 13 12 12 12 12 11 11 12 12 11 12 11 11 11 10 11 12 12 11 12 12 12 11 11 12 12 13 14 14 13 13 12 11 11 12 13 13 14 16 16 17 17 17 17 21 25 27 27 27 27 27 28 27 27 27 25 23
16 15 15 16 16 15 14 13 12 12 11 11 10 10 10 10 11 11 11 11 10 11 12 12 12 13 13 12 11 10 11 12 13 14 13 12 11 10 11 11 11 11 11 13 14 14 15 16 17 18 19 20 24 27 28 27 27 27 28 28 27 26 23
18 16 16 17 17 16 15 14 12 11 11 10 9 9 9 9 10 11 11 10 10 11 11 11 12 12 12 12 11 12 12 12 14 14 13 13 13 12 13 12 11 10 9 9 10 9 11 14 16 19 20 20 22 26 29 28 27 27 27 27 27 26 24
19 18 17 17 17 16 15 13 12 11 10 9 8 7 8 9 9 9 10 10 9 10 11 10 11 10 11 11 11 11 11 12 14 14 15 16 17 17 18 17 16 14 11 8 6 5 6 11 14 17 20 21 23 24 24 24 25 25 26 27 26 25 24
19 18 18 18 17 16 14 13 12 10 9 9 8 7 7 9 10 9 9 8 7 7 9 9 10 9 9 9 9 8 7 8 11 14 16 18 19 20 21 21 21 21 18 13 9 7 7 11 14 16 18 21 23 23 21 19 20 21 22 24 25 25 25
19 19 19 19 18 16 15 14 13 11 10 10 10 8 7 9 11 9 8 7 6 5 6 8 9 8 9 9 9 8 7 6 8 12 16 18 19 20 21 21 21 22 22 19 16 14 15 17 19 20 20 20 21 22 20 19 19 20 20 22 23 24 25
19 19 19 18 17 16 15 15 14 12 12 12 11 9 8 9 9 8 7 6 6 6 6 6 7 8 7 6 4 5 8 9 10 13 15 17 18 20 20 21 21 21 22 22 21 21 22 22 23 22 22 21 21 20 19 19 20 21 23 25 25 25 26
19 19 19 19 18 17 16 15 14 13 12 11 11 10 10 10 9 9 8 7 7 8 7 7 7 8 8 5 1 3 8 11 12 13 16 17 18 19 20 20 20 20 21 22 22 22 23 23 22 22 22 22 21 19 19 20 21 22 24 26 27 28 28
19 19 19 19 19 18 17 15 14 12 10 10 12 12 12 11 11 11 11 10 10 11 11 10 10 10 11 9 5 4 8 11 12 13 16 17 18 19 19 19 20 20 21 21 21 20 21 22 22 22 21 21 20 20 20 21 23 24 25 25 26 27 28
20 20 19 18 19 18 16 14 13 12 12 12 14 13 12 13 13 13 13 13 13 13 13 13 13 12 13 12 11 9 9 10 12 13 16 18 18 18 18 18 19 21 22 23 21 19 18 19 20 21 21 20 20 20 20 21 23 24 25 26 27 28 27
21 20 18 18 18 16 15 14 14 13 13 13 14 13 13 13 13 13 14 14 14 14 14 14 14 14 13 12 12 12 12 12 12 14 16 18 18 17 17 18 18 19 20 21 21 21 19 17 17 18 20 20 20 20 21 22 22 22 22 25 27 27 27
Wind_Direction
168 171 183 179 177 188 190 194 206 208 228 266 269 259 258 255 250 254 260 264 267 272 277 281 289 296 297 295 293 291 291 292 293 294 295 297 299 297 295 295 297 302 306 306 303 302 300 299 304 307 308 309 298 287 284 279 277 276 274 272 267 264 263
173 175 184 181 177 184 186 185 199 221 244 259 264 260 255 253 255 259 259 261 264 270 276 278 280 284 289 294 295 295 293 291 290 292 293 293 294 294 296 297 298 301 303 305 306 305 300 299 303 306 311 312 301 292 289 284 283 281 274 269 267 265 264
179 174 177 177 173 172 172 176 190 221 246 253 257 257 253 245 244 247 251 254 255 263 272 274 275 277 283 289 291 288 288 288 289 290 291 291 292 294 298 299 299 303 307 307 307 306 304 302 301 303 307 307 301 299 296 290 290 287 277 270 268 267 264
178 184 183 171 164 165 172 185 198 218 239 252 260 262 258 249 246 252 256 256 253 261 272 274 277 279 279 281 282 283 285 289 292 294 295 296 299 301 303 302 301 304 307 306 305 304 303 303 302 301 304 305 304 305 302 296 293 284 275 269 266 265 264
180 198 191 168 166 172 176 191 209 224 230 241 252 252 252 252 255 262 262 256 254 261 272 279 282 283 284 286 289 291 294 296 300 303 304 303 302 302 303 303 303 303 303 303 303 302 302 305 305 302 303 306 307 310 307 300 297 288 277 273 271 269 266
189 205 190 173 174 173 178 196 216 226 217 220 234 237 245 255 262 270 276 279 287 286 282 287 288 290 296 298 301 306 307 307 309 311 310 308 306 305 304 304 304 302 300 300 303 307 308 306 305 304 304 303 303 308 308 303 302 294 280 275 276 276 270
195 200 181 175 182 184 194 211 224 228 218 215 228 237 244 254 267 283 302 309 314 308 292 290 292 292 295 298 303 310 313 313 314 314 312 310 309 307 306 306 305 302 301 303 305 311 311 307 307 307 306 304 303 306 308 305 302 295 284 280 280 278 271
194 195 184 185 201 210 214 225 230 227 221 217 227 242 249 257 281 299 299 295 299 298 293 293 294 287 283 286 290 300 310 315 312 310 312 312 312 313 311 312 311 307 307 311 311 312 312 310 310 309 306 306 307 308 308 307 303 296 291 288 285 281 273
186 202 209 206 216 226 223 226 228 225 224 220 223 242 260 263 286 304 303 301 304 307 307 301 299 295 289 287 284 286 299 309 305 307 316 319 321 324 321 320 321 316 312 315 317 318 317 314 310 306 303 302 304 306 306 305 303 299 298 293 288 283 274
183 201 217 220 225 228 219 216 219 222 225 217 216 238 261 271 292 313 321 323 320 321 321 316 319 321 317 317 312 301 297 294 294 310 326 328 328 331 329 328 330 325 318 318 322 323 323 320 313 306 304 302 303 303 300 299 299 300 301 297 292 289 285
186 198 212 223 224 221 216 211 208 215 216 199 212 237 254 293 305 323 337 335 329 333 338 337 339 336 335 341 338 335 331 318 318 329 332 330 330 332 334 334 335 332 329 327 328 330 330 327 322 313 308 306 305 302 299 298 297 298 300 297 295 293 291
188 196 208 213 208 203 204 207 204 205 199 187 214 230 225 280 309 339 352 350 348 353 354 348 347 343 344 352 354 354 353 356 3 343 328 331 330 327 329 330 328 328 329 329 330 333 334 331 328 323 318 315 311 306 304 299 293 294 297 297 297 295 291
184 194 203 201 199 196 191 196 193 188 193 193 209 237 250 294 334 4 15 17 8 358 352 346 348 351 357 5 8 3 355 3 7 337 324 327 320 315 319 321 321 322 322 322 321 323 325 328 330 329 327 325 320 314 310 300 292 294 299 300 298 295 292
187 194 192 188 202 201 182 172 172 191 209 197 197 245 323 12 18 31 33 23 6 356 358 358 6 11 9 9 6 359 357 5 1 343 338 335 324 325 330 329 328 328 327 324 322 319 317 319 323 328 330 327 323 321 317 310 302 301 304 304 299 294 292
196 203 194 190 201 200 180 172 173 188 207 185 168 199 56 64 57 50 35 19 14 17 18 18 21 16 5 3 1 358 3 10 359 347 347 343 338 343 345 341 341 341 341 340 338 335 328 323 322 323 325 324 322 323 323 321 317 311 310 309 303 297 294
201 208 199 192 192 189 177 169 167 174 179 160 144 119 93 92 86 64 48 45 47 44 37 29 23 13 5 4 3 1 6 10 359 351 354 348 343 349 352 350 350 350 351 349 345 343 337 332 327 319 318 319 319 320 322 323 324 319 316 315 311 304 298
205 210 200 186 176 172 162 151 155 164 154 137 127 114 106 102 92 81 74 68 61 51 40 33 24 12 10 9 5 5 6 6 360 358 3 354 347 354 358 356 356 354 352 349 347 346 344 339 335 326 323 323 320 320 320 320 323 323 320 318 317 313 305
208 204 188 171 161 158 154 151 154 151 138 130 124 115 111 106 99 91 80 68 57 43 30 24 19 13 11 7 3 7 10 10 9 10 12 4 355 360 3 360 358 357 356 358 1 2 358 350 342 335 331 329 328 329 329 324 322 322 322 321 321 321 314
193 176 161 151 148 148 148 147 144 137 130 127 121 115 112 108 99 88 74 60 47 33 23 20 18 15 14 11 9 14 19 23 23 21 20 15 6 3 3 3 4 6 9 12 15 16 15 10 2 355 348 342 337 338 341 339 331 325 326 326 325 327 327
165 152 146 142 142 142 143 141 138 134 127 121 119 115 111 105 93 79 65 54 44 35 31 29 27 25 22 22 25 27 30 36 39 33 26 20 12 6 5 10 15 19 22 23 20 20 22 22 20 17 12 6 357 351 350 350 345 337 336 333 330 334 340
152 144 141 142 143 142 142 139 134 130 125 121 121 117 110 100 87 77 66 58 53 48 45 43 41 39 33 31 36 38 40 45 47 43 37 28 20 16 18 25 30 31 31 30 26 23 22 22 22 23 21 17 13 7 1 358 355 352 349 345 342 343 344
144 138 138 141 141 137 134 131 126 121 121 121 120 114 106 96 87 80 73 65 61 58 56 54 49 45 39 38 43 44 44 50 51 49 46 38 28 28 34 37 36 35 35 34 30 27 27 27 26 25 24 22 19 18 16 13 13 12 7 3 1 359 355
136 136 141 141 136 133 130 126 120 118 121 121 117 112 105 99 92 83 76 71 67 64 61 56 50 44 40 42 46 44 43 50 54 53 54 49 35 30 37 44 42 36 33 33 32 29 32 38 39 34 30 29 28 28 28 27 27 27 24 21 19 14 8
132 136 138 134 132 131 127 120 117 122 126 122 117 113 108 101 93 85 79 75 71 68 62 56 52 45 43 47 50 48 48 51 53 54 60 61 50 38 36 41 47 45 35 33 33 29 28 37 43 41 38 38 39 36 35 36 35 35 32 28 25 23 19
133 135 134 131 130 126 121 120 122 127 125 120 119 117 111 103 95 88 84 81 76 71 64 59 56 49 48 54 57 57 58 56 55 54 53 54 54 50 42 39 47 53 49 41 37 32 26 25 30 37 39 39 42 41 38 38 38 36 34 29 25 24 21
137 136 133 131 128 126 127 130 133 130 122 119 120 115 107 103 99 94 89 85 79 72 67 63 61 55 52 58 63 64 62 59 56 53 49 45 42 45 45 44 50 56 56 52 46 43 37 22 17 32 40 37 39 41 39 39 40 38 35 31 27 25 20
135 132 130 128 126 126 127 124 119 115 112 113 116 112 107 105 104 101 96 90 84 77 71 69 67 60 53 54 58 58 57 55 49 43 39 35 31 34 39 41 50 57 57 56 52 49 46 28 13 28 44 39 36 41 42 40 41 42 40 37 35 32 27
130 130 128 125 123 120 118 114 110 109 107 107 113 117 115 111 109 109 104 97 92 84 77 75 74 66 59 56 48 36 35 38 35 30 29 28 28 35 40 39 46 54 58 63 62 59 56 40 19 25 43 44 40 43 46 45 45 46 45 44 42 39 36
128 130 129 127 128 127 126 125 124 122 118 119 127 130 126 119 117 120 118 110 100 90 85 84 82 74 69 67 52 31 21 19 23 28 37 42 44 50 51 46 46 50 58 71 71 68 68 57 37 30 39 50 52 48 45 42 45 50 50 49 48 47 46
132 134 132 131 130 130 129 126 123 123 123 127 131 129 125 119 112 117 123 119 108 100 95 93 92 88 85 82 70 51 34 24 27 39 54 60 60 61 59 54 51 51 53 59 55 52 74 75 63 48 43 50 55 50 41 36 37 44 51 54 53 53 54
137 138 135 131 128 126 125 120 116 115 114 111 105 101 111 113 109 111 119 117 111 110 106 102 100 95 91 90 83 70 56 43 43 52 62 66 67 66 62 57 53 52 53 53 49 52 75 81 76 67 57 53 53 50 46 40 33 35 44 53 57 57 58
141 140 136 132 132 131 128 122 118 114 108 104 101 103 115 120 117 117 115 110 109 109 111 114 109 101 100 100 88 72 69 77 74 69 68 67 67 66 63 58 55 55 59 63 64 69 77 79 75 70 65 60 56 52 50 46 39 36 41 48 53 56 58
142 142 135 131 130 128 125 122 123 124 123 122 126 131 131 125 122 118 113 111 112 107 107 114 115 116 122 123 104 79 82 86 87 83 77 71 68 66 63 61 59 61 65 70 73 75 78 78 73 68 63 61 58 54 52 52 49 47 45 46 47 48 51
136 133 129 128 128 127 127 130 133 138 140 140 137 131 123 119 117 113 109 107 106 104 104 106 110 116 117 109 104 128 108 97 91 88 83 77 72 67 64 63 63 65 68 72 75 76 76 75 71 66 61 59 58 58 56 55 56 57 54 51 48 45 44
130 128 129 132 132 131 135 140 142 142 140 133 124 116 114 117 115 109 107 106 104 103 102 102 104 103 99 92 91 118 118 109 103 97 89 82 76 71 69 69 69 70 70 70 72 74 77 76 73 69 65 59 58 60 59 56 56 58 57 56 55 51 45
130 129 131 133 132 134 139 142 140 137 133 125 118 114 114 116 115 113 112 109 106 105 103 101 99 96 94 96 97 96 95 96 98 95 90 85 79 74 74 74 75 75 73 69 66 67 72 79 79 77 73 65 60 58 59 60 59 57 55 55 57 56 52
131 132 133 134 136 138 138 135 133 133 128 121 116 114 112 112 114 116 115 110 108 108 105 101 97 93 92 95 97 96 90 86 88 87 85 83 80 78 76 72 69 71 72 71 68 64 62 69 80 86 84 78 72 65 60 60 61 61 59 57 56 57 57